[[{"header":{"parameterUnit":"m.s-1","parameterCategory":2,"la1":30.2991,"la2":30.254,"lo1":-89.0895,"lo2":-89.0444,"dy":0.0017,"dx":0.0017,"nx":28,"ny":28,"refTime":"2024-05-24T21:00:00:Z","depth":"0","parameterNumber":2,"parameterNumberName":"U-component_of_CURRENTS"},"data":[0,0,0,0,0,0,0,0,0,0,0,0,0,0,0,0,0,0,0,0,0,0,0,0,0,0,0,0,0,0,0,0,0,0,0,0,0,0,0,0,0,0,0,0,0,0,0,0,0,0,0,0,0,0,0,0,0,0,0.2808,0.2808,0,0.2813,0.2813,0.2813,0.2792,0.2791,0.2791,0.2791,0.2776,0.2776,0.2776,0,0,0,0,0,0,0,0,0,0,0,0,0,0.2798,0.2798,0.2808,0.2808,0.2808,0.2813,0.2813,0.2813,0.2792,0.2791,0.2791,0.279,0.2776,0.2776,0.2776,0,0,0,0,0,0,0,0,0,0,0,0,0,0.28,0.2798,0.2808,0.28,0.2799,0.2813,0.2813,0.2813,0.2792,0.2791,0.2791,0.279,0.2776,0.2776,0.2776,0.2789,0,0,0.2776,0.2776,0,0,0,0,0,0,0,0,0.28,0.2801,0.2801,0.2801,0.28,0.2803,0.2805,0.2805,0.2792,0.2793,0.2791,0.279,0.2785,0.2784,0.2784,0.2788,0.2788,0.2776,0.2776,0.2776,0.2776,0,0,0,0,0,0,0,0.28,0.28,0.2808,0.2801,0.2801,0.2803,0.2802,0.2804,0.279,0.2792,0.2791,0.2796,0.2784,0.2784,0.2783,0.2787,0.2776,0.2776,0.2776,0.2776,0.2844,0.2846,0,0,0,0,0,0,0.2804,0.28,0.2808,0.2808,0.2801,0.2804,0.2803,0.2801,0.2791,0.2789,0.2796,0.2795,0.2784,0.2783,0.2783,0.2824,0.2776,0.2776,0.2776,0.2842,0.2844,0.2846,0,0,0,0,0,0,0.2803,0.2804,0.2807,0.2806,0.2807,0.2805,0.2803,0.2802,0.2806,0.2794,0.2792,0.2803,0.2784,0.2783,0.28,0.2823,0.2776,0.2776,0.284,0.2843,0.2845,0.289,0,0,0,0,0,0,0.2803,0.2804,0.2806,0.2806,0.2807,0.2825,0.2804,0.2802,0.2811,0.2809,0.28,0.2797,0.2783,0.28,0.28,0.2822,0.2776,0.2838,0.2841,0.2844,0.2887,0.2894,0.2901,0,0,0,0,0,0.2802,0.2805,0.2806,0.2807,0.2809,0.2826,0.2827,0.2821,0.2812,0.2821,0.2819,0.2798,0.2821,0.2801,0.2801,0.2823,0.2836,0.284,0.2844,0.2884,0.2893,0.2901,0,0,0,0,0,0,0.2799,0.2804,0.2804,0.2807,0.2822,0.2823,0.283,0.2829,0.2835,0.2832,0.2816,0.2815,0.2842,0.2831,0.281,0.2856,0.2827,0.2831,0.2858,0.2866,0.2873,0.2881,0.2776,0,0,0,0,0,0.2802,0.2804,0.2816,0.282,0.2828,0.2832,0.2839,0.2839,0.2844,0.2845,0.2838,0.2841,0.2858,0.286,0.2869,0.2889,0.2893,0.2907,0.2914,0.292,0.2929,0.297,0.2981,0.286,0.2859,0.2859,0,0,0.2799,0.2805,0.2804,0.282,0.2827,0.2844,0.2834,0.2849,0.2866,0.2844,0.2859,0.2866,0.2872,0.2898,0.2909,0.289,0.2956,0.2925,0.2929,0.2935,0.2975,0.2987,0.2997,0.2862,0.2862,0.2861,0,0,0.2797,0.2805,0.2808,0.2826,0.2847,0.2856,0.2865,0.2875,0.2884,0.2905,0.2903,0.2928,0.2933,0.2951,0.296,0.3015,0.2997,0.3015,0.305,0.309,0.31,0.3109,0.3121,0.3131,0.3013,0.3013,0.3013,0,0.2796,0.2799,0.2814,0.283,0.2844,0.2864,0.2878,0.29,0.2914,0.293,0.2916,0.296,0.2963,0.3014,0.3034,0.3031,0.3039,0.3012,0.3098,0.3107,0.3116,0.3126,0.3136,0.3016,0.3015,0.3015,0.3015,0,0.2799,0.2808,0.2816,0.2841,0.2863,0.288,0.2915,0.2939,0.295,0.2967,0.3016,0.303,0.3054,0.3067,0.3064,0.3132,0.3114,0.3105,0.3072,0.313,0.3138,0.3147,0.3019,0.3019,0.3018,0.3017,0,0,0.2772,0.2809,0.2811,0.2822,0.2869,0.2883,0.2931,0.2975,0.3007,0.3034,0.3073,0.3119,0.3128,0.3141,0.3151,0.3188,0.3252,0.3172,0.3173,0.3177,0.3325,0.3257,0.3261,0.3257,0.3259,0.3261,0.3302,0,0.2768,0.279,0.2813,0.2839,0.2854,0.2897,0.2939,0.2988,0.3029,0.3076,0.3121,0.3163,0.3158,0.3175,0.3216,0.3251,0.3282,0.3241,0.3275,0.3275,0.3203,0.3272,0.3139,0.316,0.3311,0.3313,0.3314,0,0.2754,0.2776,0.2792,0.2836,0.2847,0.287,0.2939,0.2982,0.3072,0.3101,0.3161,0.3197,0.3272,0.3253,0.3339,0.3312,0.3325,0.3343,0.3344,0.3274,0.3227,0.313,0.3171,0.3117,0.3329,0.3327,0.3326,0,0.2715,0.2754,0.2762,0.2778,0.2839,0.2859,0.29,0.2985,0.3034,0.3127,0.3172,0.325,0.3299,0.3344,0.3389,0.3369,0.3472,0.3443,0.3392,0.3386,0.3276,0.3256,0.3262,0.3502,0.3502,0.3502,0.3501,0,0.269,0.2697,0.2743,0.2749,0.2774,0.2832,0.2882,0.2934,0.3031,0.3092,0.3182,0.3246,0.3329,0.3398,0.3415,0.3439,0.3493,0.3415,0.3404,0.3286,0.3268,0.3217,0.3189,0.3503,0.3503,0.3502,0.3502,0,0.2636,0.2666,0.2678,0.2734,0.275,0.2771,0.2862,0.2904,0.3006,0.3093,0.3128,0.3261,0.3346,0.3416,0.3492,0.3468,0.3398,0.3485,0.3328,0.3298,0.3168,0.3147,0.2995,0.2916,0.3425,0.3424,0.3423,0,0.2606,0.2606,0.265,0.266,0.268,0.2729,0.2763,0.2868,0.2922,0.3094,0.3126,0.3259,0.3323,0.3416,0.3413,0.3429,0.3352,0.3299,0.3238,0.3158,0.3129,0.299,0.2925,0.3107,0.3104,0.3101,0.3099,0,0.2554,0.2567,0.2582,0.2601,0.2623,0.2658,0.272,0.2758,0.2888,0.2965,0.307,0.3145,0.326,0.323,0.3266,0.3257,0.3133,0.3237,0.3207,0.2929,0.2726,0.2644,0.3072,0.3073,0.3075,0.3077,0.3079,0.308,0.2511,0.2507,0.2525,0.2529,0.2552,0.2562,0.2559,0.2636,0.2693,0.2778,0.293,0.2984,0.3066,0.3098,0.3074,0.297,0.2949,0.2873,0.2869,0.2746,0.2618,0.2978,0.2935,0.2937,0.2938,0.2939,0.2941,0,0.2444,0.2447,0.2454,0.2447,0.2424,0.2469,0.2501,0.248,0.2485,0.261,0.268,0.2756,0.2731,0.2784,0.2745,0.2638,0.2502,0.2561,0.2358,0.2327,0.2704,0.2642,0.247,0.247,0.247,0.247,0.247,0.247,0.2415,0.2385,0.238,0.231,0.2302,0.2233,0.2221,0.2203,0.2255,0.2278,0.2321,0.2418,0.2563,0.2565,0.2471,0.2408,0.2251,0.209,0.2123,0.2433,0.2462,0.249,0.2427,0.2213,0.2213,0.163,0.1626,0.1623]},{"header":{"parameterUnit":"m.s-1","parameterCategory":2,"la1":30.2991,"la2":30.254,"lo1":-89.0895,"lo2":-89.0444,"dy":0.0017,"dx":0.0017,"nx":28,"ny":28,"refTime":"2024-05-24T21:00:00:Z","depth":"0","parameterNumber":3,"parameterNumberName":"V-component_of_CURRENTS"},"data":[0,0,0,0,0,0,0,0,0,0,0,0,0,0,0,0,0,0,0,0,0,0,0,0,0,0,0,0,0,0,0,0,0,0,0,0,0,0,0,0,0,0,0,0,0,0,0,0,0,0,0,0,0,0,0,0,0,0,0.0365,0.0365,0,0.0339,0.0338,0.0338,0.0313,0.0313,0.0313,0.0313,0.0265,0.0264,0.0263,0,0,0,0,0,0,0,0,0,0,0,0,0,0.0356,0.0356,0.0365,0.0365,0.0365,0.0339,0.0338,0.0338,0.0313,0.0313,0.0313,0.0313,0.0265,0.0264,0.0263,0,0,0,0,0,0,0,0,0,0,0,0,0,0.0347,0.0356,0.0365,0.035,0.0349,0.0339,0.0338,0.0338,0.0314,0.0313,0.0313,0.0313,0.0266,0.0264,0.0263,0.0259,0,0,0.0258,0.0257,0,0,0,0,0,0,0,0,0.0347,0.0347,0.0353,0.0351,0.035,0.033,0.0318,0.0311,0.0314,0.0326,0.0313,0.0312,0.0286,0.0282,0.0277,0.0256,0.0254,0.0258,0.0257,0.0256,0.0255,0,0,0,0,0,0,0,0.0348,0.0348,0.0354,0.0352,0.0351,0.0332,0.033,0.0316,0.0306,0.0325,0.0323,0.0322,0.0285,0.0279,0.0276,0.0254,0.0258,0.0256,0.0255,0.0254,0.0231,0.0231,0,0,0,0,0,0,0.0356,0.0349,0.0354,0.0353,0.0349,0.0332,0.0331,0.0336,0.0307,0.0303,0.0322,0.0321,0.0281,0.0277,0.0274,0.0286,0.0256,0.0254,0.0253,0.023,0.0231,0.0231,0,0,0,0,0,0,0.0356,0.0357,0.0356,0.035,0.0349,0.0333,0.0339,0.0335,0.0333,0.0306,0.0301,0.0323,0.0281,0.0276,0.0267,0.0283,0.0254,0.0252,0.023,0.0231,0.0231,0.0298,0,0,0,0,0,0,0.0356,0.0357,0.0363,0.0351,0.035,0.0359,0.0339,0.0335,0.0333,0.0331,0.0305,0.03,0.028,0.027,0.0266,0.028,0.0251,0.023,0.023,0.0231,0.0295,0.0301,0.0306,0,0,0,0,0,0.0356,0.0369,0.0364,0.0364,0.0359,0.036,0.0358,0.0344,0.0333,0.0339,0.0319,0.0301,0.0271,0.0269,0.0264,0.0278,0.0229,0.023,0.0231,0.0293,0.03,0.0305,0,0,0,0,0,0,0.0367,0.0367,0.0362,0.0374,0.0371,0.0357,0.036,0.0349,0.0338,0.0336,0.0306,0.0301,0.0297,0.0277,0.0276,0.0272,0.0247,0.0246,0.0296,0.0302,0.0307,0.0323,0.0249,0,0,0,0,0,0.0373,0.0385,0.0378,0.0389,0.039,0.0375,0.0373,0.0366,0.0354,0.0349,0.0329,0.0309,0.0295,0.0291,0.0272,0.0274,0.0247,0.0278,0.0284,0.0288,0.0297,0.0275,0.0279,0.0234,0.0234,0.0234,0,0,0.0379,0.0382,0.0387,0.0392,0.0388,0.04,0.0374,0.0378,0.039,0.0346,0.0351,0.0323,0.0298,0.0298,0.0295,0.0286,0.0284,0.0289,0.0293,0.03,0.0276,0.0281,0.0285,0.0234,0.0234,0.0234,0,0,0.0403,0.0402,0.0421,0.0424,0.0426,0.042,0.0424,0.0414,0.0411,0.0412,0.0382,0.0367,0.0347,0.0333,0.0324,0.0346,0.0307,0.0337,0.0382,0.0361,0.0365,0.0368,0.0329,0.0328,0.0344,0.0345,0.0345,0,0.0409,0.0436,0.0426,0.0446,0.0456,0.0434,0.0458,0.0453,0.044,0.0445,0.0424,0.0394,0.0367,0.0373,0.0377,0.0359,0.0333,0.0365,0.0369,0.0371,0.0373,0.0332,0.033,0.0348,0.0347,0.0347,0.0347,0,0.0448,0.0469,0.0482,0.0503,0.0511,0.0529,0.0524,0.053,0.052,0.0511,0.0508,0.0468,0.0451,0.0439,0.0416,0.042,0.0391,0.0375,0.0357,0.0382,0.0337,0.0334,0.0353,0.0351,0.035,0.035,0,0,0.0467,0.0503,0.0509,0.0536,0.0546,0.0561,0.0583,0.06,0.0621,0.0593,0.0616,0.0578,0.0547,0.0533,0.0496,0.0478,0.0459,0.0438,0.0436,0.0406,0.0399,0.0393,0.0388,0.0446,0.0446,0.0446,0.0358,0,0.0504,0.056,0.0565,0.0619,0.065,0.0645,0.0674,0.0684,0.0677,0.0689,0.0649,0.0648,0.0587,0.0582,0.0551,0.0489,0.0456,0.0484,0.0373,0.0369,0.0368,0.0387,0.042,0.0347,0.0354,0.0354,0.0353,0,0.0544,0.058,0.0641,0.0697,0.071,0.0734,0.0779,0.0803,0.0808,0.0804,0.0784,0.0745,0.0713,0.0658,0.0556,0.0577,0.0492,0.0435,0.043,0.0403,0.0359,0.0324,0.034,0.0274,0.0348,0.0348,0.0349,0,0.0577,0.0636,0.0692,0.0709,0.0762,0.079,0.0818,0.0836,0.0876,0.0875,0.0896,0.0833,0.0819,0.0712,0.0585,0.0571,0.0471,0.0434,0.0342,0.034,0.0336,0.0334,0.0285,0.0358,0.0358,0.0358,0.0358,0,0.0621,0.0665,0.0713,0.0745,0.0824,0.0838,0.0912,0.0929,0.0964,0.1024,0.0957,0.0982,0.0835,0.0758,0.062,0.048,0.0491,0.0356,0.0325,0.0359,0.036,0.0276,0.0206,0.0355,0.0355,0.0356,0.0357,0,0.065,0.068,0.0751,0.0815,0.0844,0.0899,0.0985,0.1037,0.1058,0.1133,0.1142,0.1098,0.1004,0.0842,0.0674,0.0541,0.0348,0.034,0.0382,0.0359,0.0212,0.0144,0.0031,-0.0012,0.0222,0.0221,0.0221,0,0.0671,0.0711,0.0803,0.0853,0.0885,0.0967,0.1034,0.1084,0.1145,0.1211,0.1256,0.1195,0.1174,0.0922,0.0684,0.0446,0.0337,0.0306,0.0286,0.0219,0.012,0.0081,0.0051,0.0292,0.0292,0.0293,0.0293,0,0.0711,0.0742,0.0801,0.0908,0.0984,0.1082,0.1174,0.1243,0.1317,0.1386,0.1456,0.1449,0.1225,0.1025,0.0705,0.0525,0.0266,0.0301,0.0228,0.0173,0.013,0.0072,0.0318,0.0294,0.0294,0.0294,0.0294,0.0294,0.0739,0.0788,0.0868,0.0968,0.1063,0.1185,0.1273,0.1379,0.1508,0.1628,0.1608,0.1642,0.1353,0.0934,0.0683,0.0295,0.0262,0.0186,0.0105,0.007,0.0049,0.0295,0.0245,0.0244,0.0244,0.0244,0.0243,0,0.0773,0.0833,0.0924,0.1048,0.115,0.1201,0.1362,0.1461,0.1622,0.1747,0.1815,0.1735,0.1364,0.0974,0.0433,0.0164,0.0067,0.0024,-0.0016,-0.0042,0.0182,0.0209,0.0157,0.0157,0.0157,0.0157,0.0157,0.0157,0.0794,0.0879,0.0929,0.1097,0.1186,0.1339,0.1437,0.1594,0.1724,0.1906,0.1975,0.2001,0.1754,0.0775,0.0165,0.0,-0.0169,-0.0208,-0.0303,-0.0135,-0.0125,-0.0116,-0.0102,-0.0219,-0.0219,-0.0455,-0.0458,-0.046]}],[{"header":{"parameterUnit":"m.s-1","parameterCategory":2,"la1":30.2991,"la2":30.254,"lo1":-89.0895,"lo2":-89.0444,"dy":0.0017,"dx":0.0017,"nx":28,"ny":28,"refTime":"2024-05-24T21:00:00:Z","depth":"2","parameterNumber":2,"parameterNumberName":"U-component_of_CURRENTS"},"data":[0,0,0,0,0,0,0,0,0,0,0,0,0,0,0,0,0,0,0,0,0,0,0,0,0,0,0,0,0,0,0,0,0,0,0,0,0,0,0,0,0,0,0,0,0,0,0,0,0,0,0,0,0,0,0,0,0,0,0.2542,0.2542,0,0.2547,0.2547,0.2547,0.2538,0.2538,0.2537,0.2537,0.2534,0.2534,0.2533,0,0,0,0,0,0,0,0,0,0,0,0,0,0.2535,0.2535,0.2542,0.2542,0.2542,0.2547,0.2547,0.2546,0.2538,0.2538,0.2537,0.2537,0.2534,0.2534,0.2533,0,0,0,0,0,0,0,0,0,0,0,0,0,0.2537,0.2535,0.2542,0.254,0.254,0.2547,0.2547,0.2546,0.2538,0.2538,0.2537,0.2537,0.2534,0.2534,0.2533,0.2536,0,0,0.2533,0.2533,0,0,0,0,0,0,0,0,0.2536,0.2536,0.254,0.254,0.254,0.2543,0.2543,0.2543,0.2538,0.2536,0.2537,0.2537,0.2538,0.2537,0.2535,0.2536,0.2536,0.2533,0.2533,0.2533,0.2533,0,0,0,0,0,0,0,0.2536,0.2536,0.2541,0.254,0.254,0.2543,0.2543,0.2543,0.2536,0.2536,0.2536,0.254,0.2537,0.2535,0.2535,0.2536,0.2533,0.2533,0.2533,0.2533,0.2595,0.2596,0,0,0,0,0,0,0.254,0.2536,0.2541,0.2542,0.254,0.2543,0.2543,0.2541,0.2536,0.2536,0.2541,0.254,0.2536,0.2535,0.2535,0.258,0.2533,0.2533,0.2533,0.2593,0.2595,0.2597,0,0,0,0,0,0,0.2539,0.254,0.2541,0.2541,0.2542,0.2544,0.2541,0.2541,0.2551,0.254,0.2539,0.2553,0.2535,0.2535,0.2553,0.2578,0.2533,0.2533,0.2591,0.2594,0.2596,0.2643,0,0,0,0,0,0,0.2539,0.254,0.2544,0.2541,0.2542,0.2557,0.2542,0.2541,0.2555,0.2554,0.255,0.2549,0.2535,0.2553,0.2553,0.2577,0.2533,0.2589,0.2592,0.2595,0.2639,0.2647,0.2653,0,0,0,0,0,0.2539,0.2542,0.2544,0.2545,0.2546,0.2558,0.2559,0.2558,0.2556,0.2566,0.2567,0.255,0.2573,0.2554,0.2554,0.2579,0.2588,0.2591,0.2595,0.2636,0.2645,0.2653,0,0,0,0,0,0,0.254,0.2542,0.2544,0.2547,0.256,0.2558,0.2567,0.2569,0.2577,0.2579,0.2565,0.2564,0.2594,0.2583,0.2563,0.2608,0.258,0.2584,0.2612,0.262,0.2627,0.2636,0.2533,0,0,0,0,0,0.2544,0.2547,0.2554,0.256,0.2567,0.2571,0.2578,0.2581,0.2586,0.2589,0.2587,0.2591,0.2607,0.261,0.2618,0.2636,0.264,0.2656,0.2662,0.2668,0.2678,0.2714,0.2725,0.2609,0.2609,0.2609,0,0,0.2543,0.2548,0.2548,0.2561,0.2568,0.2582,0.2575,0.2591,0.2608,0.2588,0.2609,0.2617,0.262,0.2645,0.2657,0.2638,0.2703,0.2673,0.2677,0.2684,0.2719,0.2731,0.274,0.2611,0.2611,0.2611,0,0,0.2545,0.2553,0.2556,0.2572,0.2592,0.2599,0.2609,0.262,0.2631,0.2652,0.2652,0.2678,0.2683,0.2699,0.2705,0.2757,0.2743,0.276,0.2795,0.283,0.284,0.2848,0.2861,0.2871,0.2757,0.2757,0.2757,0,0.2548,0.255,0.2562,0.2576,0.2589,0.2609,0.2622,0.2642,0.2658,0.2674,0.2666,0.2709,0.2712,0.2757,0.2777,0.2773,0.2782,0.2759,0.2839,0.2847,0.2855,0.2866,0.2876,0.276,0.276,0.2759,0.2759,0,0.2551,0.256,0.2568,0.2589,0.261,0.2626,0.2656,0.2682,0.2697,0.2714,0.2764,0.2776,0.2801,0.2813,0.2809,0.2873,0.2858,0.2846,0.2814,0.2869,0.2878,0.2887,0.2764,0.2763,0.2762,0.2761,0,0,0.2531,0.2561,0.2564,0.2574,0.2617,0.2629,0.2675,0.2715,0.2747,0.2777,0.2817,0.2859,0.2874,0.2885,0.2894,0.2926,0.2989,0.2913,0.2914,0.292,0.3057,0.2989,0.2992,0.2992,0.2994,0.2996,0.3037,0,0.2528,0.2547,0.2567,0.2591,0.2604,0.2644,0.2683,0.273,0.2769,0.2817,0.2859,0.2903,0.29,0.2921,0.2958,0.2988,0.3018,0.2978,0.3008,0.3009,0.2937,0.3002,0.2755,0.2767,0.3046,0.3048,0.3049,0,0.2517,0.2535,0.2551,0.2589,0.2599,0.2623,0.2689,0.2729,0.2814,0.2845,0.2905,0.2941,0.3013,0.2995,0.3076,0.3051,0.3063,0.3077,0.3078,0.3006,0.2958,0.276,0.2773,0.3064,0.3063,0.3061,0.306,0,0.2483,0.2518,0.2527,0.2541,0.2594,0.2616,0.2657,0.2738,0.2784,0.2876,0.292,0.2995,0.3045,0.3085,0.3126,0.3107,0.3202,0.3171,0.3118,0.3112,0.2904,0.2876,0.3225,0.3225,0.3225,0.3225,0.3225,0,0.2461,0.2468,0.2512,0.2517,0.2544,0.2597,0.2649,0.2699,0.2794,0.2851,0.2937,0.2994,0.3075,0.3138,0.3152,0.317,0.3223,0.3141,0.3129,0.2912,0.2886,0.3142,0.3132,0.3226,0.3226,0.3226,0.3225,0,0.2413,0.244,0.2453,0.2506,0.2523,0.2547,0.2637,0.2676,0.2777,0.2859,0.2894,0.3016,0.3092,0.3158,0.3226,0.3199,0.3221,0.3208,0.2942,0.2898,0.3095,0.3087,0.3149,0.3147,0.3145,0.3144,0.3143,0,0.2385,0.2386,0.2431,0.2441,0.2461,0.2514,0.2546,0.2649,0.2698,0.2859,0.2885,0.3011,0.3061,0.3143,0.3127,0.3137,0.3203,0.2902,0.2823,0.3111,0.3093,0.3088,0.3082,0.256,0.2554,0.2549,0.2545,0,0.2337,0.2353,0.2366,0.2387,0.241,0.2442,0.2502,0.2535,0.2659,0.2729,0.2818,0.2881,0.2977,0.2879,0.291,0.2878,0.2881,0.2806,0.3186,0.2623,0.2561,0.2542,0.2554,0.2503,0.2507,0.2511,0.2513,0.2514,0.2299,0.2295,0.2311,0.2318,0.2342,0.2346,0.2342,0.2407,0.2455,0.2524,0.266,0.2667,0.2703,0.2624,0.2546,0.2484,0.2681,0.2544,0.2556,0.2574,0.2505,0.2443,0.235,0.2353,0.2356,0.2358,0.236,0,0.2236,0.2237,0.2242,0.2235,0.2212,0.2262,0.2283,0.2251,0.2245,0.2337,0.239,0.2221,0.2164,0.22,0.2044,0.2042,0.2001,0.195,0.1869,0.1913,0.1952,0.1849,0.1521,0.1518,0.1516,0.1513,0,0,0.2206,0.2175,0.2166,0.2097,0.2093,0.2029,0.2014,0.1978,0.2,0.196,0.1945,0.2108,0.2162,0.1831,0.1779,0.1622,0.1755,0.1556,0.2235,0.2186,0.2222,0.2305,0.2198,0,0,0,0,0]},{"header":{"parameterUnit":"m.s-1","parameterCategory":2,"la1":30.2991,"la2":30.254,"lo1":-89.0895,"lo2":-89.0444,"dy":0.0017,"dx":0.0017,"nx":28,"ny":28,"refTime":"2024-05-24T21:00:00:Z","depth":"2","parameterNumber":3,"parameterNumberName":"V-component_of_CURRENTS"},"data":[0,0,0,0,0,0,0,0,0,0,0,0,0,0,0,0,0,0,0,0,0,0,0,0,0,0,0,0,0,0,0,0,0,0,0,0,0,0,0,0,0,0,0,0,0,0,0,0,0,0,0,0,0,0,0,0,0,0,0.0211,0.0211,0,0.0183,0.0183,0.0182,0.0162,0.0161,0.0161,0.0161,0.0116,0.0115,0.0114,0,0,0,0,0,0,0,0,0,0,0,0,0,0.0208,0.0208,0.0211,0.0211,0.0211,0.0183,0.0183,0.0182,0.0162,0.0161,0.0161,0.0161,0.0116,0.0115,0.0113,0,0,0,0,0,0,0,0,0,0,0,0,0,0.0196,0.0208,0.0211,0.0198,0.0196,0.0183,0.0183,0.0182,0.0162,0.0161,0.0161,0.0161,0.0117,0.0115,0.0113,0.0105,0,0,0.0108,0.0107,0,0,0,0,0,0,0,0,0.0197,0.0196,0.02,0.0199,0.0197,0.0177,0.0165,0.0156,0.0162,0.0174,0.0161,0.0161,0.0135,0.0132,0.0126,0.0103,0.0101,0.0108,0.0107,0.0106,0.0106,0,0,0,0,0,0,0,0.0198,0.0197,0.0199,0.02,0.0198,0.018,0.0178,0.0163,0.0154,0.0173,0.0171,0.017,0.0134,0.0128,0.0125,0.0101,0.0108,0.0106,0.0105,0.0105,0.0077,0.0078,0,0,0,0,0,0,0.0206,0.0198,0.02,0.0198,0.0198,0.018,0.0178,0.0182,0.0155,0.0151,0.017,0.0169,0.0131,0.0127,0.0123,0.0133,0.0106,0.0105,0.0104,0.0077,0.0077,0.0078,0,0,0,0,0,0,0.0206,0.0206,0.0201,0.0198,0.0196,0.0181,0.0185,0.0182,0.0181,0.0153,0.0149,0.0173,0.013,0.0125,0.0117,0.0131,0.0104,0.0102,0.0077,0.0077,0.0078,0.0141,0,0,0,0,0,0,0.0206,0.0207,0.0213,0.0199,0.0197,0.0203,0.0185,0.0182,0.018,0.0179,0.0154,0.0149,0.013,0.012,0.0115,0.0128,0.0101,0.0076,0.0077,0.0077,0.0138,0.0143,0.0147,0,0,0,0,0,0.0206,0.0218,0.0213,0.0213,0.0205,0.0204,0.0201,0.0188,0.0181,0.0185,0.0168,0.015,0.012,0.0119,0.0113,0.0126,0.0076,0.0077,0.0077,0.0136,0.0142,0.0147,0,0,0,0,0,0,0.0218,0.0216,0.0211,0.0221,0.0217,0.0201,0.0205,0.0194,0.0184,0.0184,0.0155,0.015,0.0145,0.0126,0.0125,0.0118,0.0095,0.0094,0.0141,0.0146,0.0151,0.0168,0.01,0,0,0,0,0,0.0225,0.0235,0.0226,0.0235,0.0235,0.0221,0.0218,0.0212,0.02,0.0195,0.0177,0.0157,0.0143,0.0138,0.0119,0.0119,0.0094,0.0121,0.0126,0.013,0.014,0.0116,0.012,0.008,0.008,0.008,0,0,0.0231,0.0232,0.0236,0.0239,0.0234,0.0244,0.0219,0.0223,0.0233,0.0192,0.0198,0.0172,0.0145,0.0143,0.014,0.013,0.0126,0.0131,0.0135,0.0142,0.0117,0.0121,0.0125,0.008,0.008,0.008,0,0,0.0253,0.0252,0.0269,0.027,0.0271,0.0264,0.0269,0.0257,0.0255,0.0256,0.0228,0.0213,0.0191,0.0176,0.0166,0.0185,0.0149,0.0176,0.0218,0.0195,0.0199,0.0201,0.0168,0.0168,0.0182,0.0182,0.0182,0,0.0261,0.0284,0.0273,0.029,0.0299,0.0278,0.03,0.0294,0.0281,0.0285,0.0267,0.0236,0.021,0.021,0.0215,0.0197,0.0174,0.0202,0.0203,0.0205,0.0206,0.0172,0.017,0.0185,0.0185,0.0185,0.0184,0,0.0296,0.0315,0.0327,0.0345,0.035,0.0366,0.036,0.0365,0.0357,0.0347,0.0343,0.0304,0.0287,0.0273,0.0251,0.0252,0.0227,0.0209,0.0192,0.0214,0.0176,0.0173,0.019,0.0189,0.0188,0.0187,0,0,0.0316,0.0346,0.0352,0.0376,0.0383,0.0397,0.0415,0.0429,0.0449,0.0422,0.0441,0.0403,0.0376,0.0362,0.0326,0.0305,0.0288,0.0268,0.0265,0.0243,0.0231,0.0225,0.0221,0.0272,0.0272,0.0272,0.0197,0,0.0351,0.0401,0.0404,0.0453,0.0481,0.0475,0.0501,0.0508,0.05,0.051,0.047,0.0469,0.0412,0.0408,0.0376,0.0315,0.0285,0.031,0.0207,0.0204,0.0202,0.0219,0.0232,0.0169,0.0194,0.0194,0.0193,0,0.0389,0.0421,0.0476,0.0526,0.0538,0.0561,0.0601,0.0622,0.0623,0.0619,0.0599,0.0561,0.0529,0.0478,0.0381,0.04,0.0322,0.0266,0.0261,0.0235,0.0194,0.0151,0.0162,0.0188,0.0188,0.0189,0.0189,0,0.0421,0.0474,0.0526,0.054,0.0587,0.0614,0.064,0.0655,0.0691,0.0689,0.0707,0.0646,0.0633,0.0531,0.0411,0.0397,0.0301,0.0264,0.018,0.0178,0.0159,0.0156,0.0192,0.0192,0.0192,0.0193,0.0193,0,0.0462,0.0503,0.0547,0.0576,0.0651,0.0663,0.0732,0.0748,0.0779,0.0834,0.0768,0.079,0.0648,0.0574,0.0444,0.0312,0.0322,0.0194,0.0165,0.018,0.018,0.0173,0.0172,0.019,0.019,0.0191,0.0191,0,0.0493,0.0519,0.0584,0.0643,0.0671,0.0725,0.0806,0.0854,0.0873,0.0942,0.0951,0.0904,0.0812,0.0658,0.0497,0.0371,0.0235,0.0181,0.0206,0.0182,0.0112,0.0115,0.0076,0.0076,0.0075,0.0075,0.0074,0,0.0513,0.055,0.0636,0.0684,0.0714,0.0794,0.0858,0.0904,0.0958,0.1016,0.1058,0.0997,0.097,0.0729,0.0505,0.0282,0.0243,0.0135,0.011,0.0128,0.0103,0.0107,0.0111,0.0098,0.0098,0.0097,0.0097,0,0.0552,0.0581,0.0636,0.0739,0.0813,0.0906,0.0992,0.1055,0.1122,0.1182,0.1241,0.1226,0.1013,0.0802,0.0502,0.0341,0.0172,0.0125,0.0143,0.0135,0.0145,0.0122,0.0125,0.0096,0.0096,0.0096,0.0096,0.0096,0.0581,0.0626,0.0701,0.0799,0.089,0.1004,0.1086,0.1181,0.1296,0.1392,0.1371,0.1354,0.1107,0.0733,0.0463,0.0171,0.0186,0.0064,0.0066,0.0067,0.0093,0.0103,0.005,0.005,0.005,0.0049,0.0049,0,0.0615,0.067,0.0756,0.0874,0.0972,0.1023,0.1171,0.1253,0.1394,0.1478,0.1527,0.1293,0.1058,0.0764,0.0349,0.0102,0.0069,0.0001,0.0019,0.0023,0.0026,0.005,-0.0006,-0.0007,-0.0008,-0.0009,0,0,0.0635,0.0715,0.076,0.092,0.1008,0.1152,0.1243,0.1369,0.1459,0.1544,0.154,0.1502,0.1155,0.0839,0.0497,0.0253,0.019,0.019,0.0262,0.0329,0.0335,0.009,0.0135,0,0,0,0,0]}],[{"header":{"parameterUnit":"m.s-1","parameterCategory":2,"la1":30.2991,"la2":30.254,"lo1":-89.0895,"lo2":-89.0444,"dy":0.0017,"dx":0.0017,"nx":28,"ny":28,"refTime":"2024-05-24T21:00:00:Z","depth":"4","parameterNumber":2,"parameterNumberName":"U-component_of_CURRENTS"},"data":[0,0,0,0,0,0,0,0,0,0,0,0,0,0,0,0,0,0,0,0,0,0,0,0,0,0,0,0,0,0,0,0,0,0,0,0,0,0,0,0,0,0,0,0,0,0,0,0,0,0,0,0,0,0,0,0,0,0,0.1635,0.1636,0,0.1673,0.1673,0.1673,0.1716,0.1717,0.1718,0.1719,0.1775,0.1775,0.1776,0,0,0,0,0,0,0,0,0,0,0,0,0,0.1593,0.1594,0.1635,0.1636,0.1636,0.1673,0.1673,0.1673,0.1716,0.1717,0.1718,0.1719,0.1774,0.1775,0.1776,0,0,0,0,0,0,0,0,0,0,0,0,0,0.1617,0.1594,0.1635,0.1664,0.1667,0.1673,0.1673,0.1673,0.1716,0.1717,0.1718,0.172,0.1774,0.1775,0.1776,0.1758,0,0,0.1779,0.178,0,0,0,0,0,0,0,0,0.1616,0.1618,0.1659,0.1662,0.1665,0.1693,0.1679,0.1703,0.1716,0.1695,0.1719,0.172,0.1749,0.1753,0.1754,0.176,0.1763,0.178,0.178,0.1781,0.1781,0,0,0,0,0,0,0,0.1614,0.1617,0.1648,0.1659,0.1663,0.1673,0.1677,0.1684,0.1713,0.1697,0.1701,0.1708,0.1751,0.1752,0.1755,0.1764,0.178,0.1781,0.1781,0.1782,0.1869,0.1871,0,0,0,0,0,0,0.1613,0.1615,0.1647,0.1649,0.1645,0.1672,0.1677,0.1681,0.1713,0.172,0.1707,0.171,0.175,0.1754,0.1758,0.1834,0.1781,0.1782,0.1782,0.1867,0.1869,0.1871,0,0,0,0,0,0,0.1611,0.1615,0.1645,0.1635,0.164,0.1672,0.1676,0.1681,0.1721,0.1721,0.1728,0.1745,0.1751,0.1756,0.1798,0.1833,0.1782,0.1783,0.1865,0.1868,0.187,0.1924,0,0,0,0,0,0,0.161,0.1614,0.1634,0.1635,0.1641,0.1674,0.1675,0.1681,0.1722,0.1727,0.1755,0.1759,0.1753,0.1797,0.1799,0.1833,0.1784,0.1863,0.1867,0.187,0.192,0.1928,0.1935,0,0,0,0,0,0.1608,0.1622,0.1634,0.164,0.1661,0.1675,0.168,0.1704,0.1723,0.1744,0.1768,0.1761,0.1819,0.1799,0.1802,0.1836,0.1862,0.1866,0.1869,0.1917,0.1927,0.1935,0,0,0,0,0,0,0.1616,0.1628,0.1642,0.1661,0.1681,0.1684,0.171,0.1725,0.1759,0.1777,0.1777,0.1783,0.1835,0.1829,0.1807,0.1873,0.1841,0.1846,0.1877,0.1886,0.1893,0.1902,0.1785,0,0,0,0,0,0.1626,0.1644,0.1655,0.1676,0.1689,0.1707,0.1725,0.1742,0.1763,0.1781,0.1799,0.1823,0.1844,0.1862,0.1877,0.1908,0.1909,0.1935,0.1942,0.1948,0.1959,0.1992,0.2003,0.1884,0.1884,0.1884,0,0,0.1636,0.1647,0.1658,0.1681,0.1699,0.1718,0.1722,0.1758,0.1785,0.178,0.1835,0.1852,0.186,0.1899,0.1922,0.1903,0.1983,0.1953,0.1958,0.1966,0.1997,0.2009,0.2019,0.1886,0.1886,0.1885,0,0,0.1649,0.1675,0.169,0.171,0.1745,0.1754,0.1774,0.18,0.1829,0.1871,0.1882,0.1923,0.1951,0.1965,0.1974,0.2032,0.2024,0.2043,0.2085,0.2117,0.2127,0.2136,0.2149,0.2158,0.2044,0.2044,0.2044,0,0.1666,0.1679,0.17,0.1719,0.1741,0.1775,0.1796,0.1825,0.1866,0.1894,0.1901,0.1968,0.198,0.2025,0.2052,0.2049,0.2061,0.2047,0.2126,0.2135,0.2143,0.2154,0.2164,0.2047,0.2046,0.2046,0.2046,0,0.1675,0.1703,0.1717,0.1751,0.1778,0.1807,0.1842,0.1885,0.1925,0.1951,0.2021,0.2041,0.208,0.2094,0.2092,0.216,0.2148,0.2132,0.2101,0.2158,0.2166,0.2176,0.2051,0.205,0.2049,0.2048,0,0,0.1664,0.1713,0.1723,0.1744,0.1799,0.1816,0.1875,0.1925,0.1971,0.2025,0.208,0.2132,0.2159,0.2172,0.2183,0.2214,0.2282,0.2208,0.2208,0.2216,0.2351,0.2195,0.2189,0.2286,0.2288,0.2289,0.2332,0,0.1669,0.1703,0.173,0.1776,0.1795,0.1848,0.1895,0.1954,0.201,0.2074,0.2122,0.2182,0.2184,0.2218,0.2253,0.2282,0.2311,0.2272,0.2299,0.2299,0.2149,0.2196,0.2296,0.2339,0.2341,0.2342,0.2343,0,0.1659,0.1686,0.1727,0.1785,0.1801,0.1841,0.1925,0.1975,0.2072,0.2117,0.219,0.2233,0.231,0.2295,0.2373,0.2353,0.2365,0.2374,0.2375,0.2217,0.216,0.2271,0.2359,0.2358,0.2357,0.2356,0.2355,0,0.162,0.1679,0.1713,0.1734,0.1807,0.185,0.1904,0.1998,0.2052,0.2163,0.2214,0.2297,0.2356,0.2393,0.243,0.2415,0.2497,0.2468,0.2334,0.2322,0.2426,0.2416,0.2517,0.2517,0.2517,0.2517,0.2517,0,0.1588,0.162,0.1705,0.1721,0.1775,0.1842,0.1919,0.1981,0.2088,0.2148,0.2246,0.2294,0.239,0.2446,0.2457,0.2422,0.252,0.2348,0.2326,0.2447,0.2439,0.2432,0.2421,0.2518,0.2518,0.2518,0.2517,0,0.153,0.1586,0.1629,0.172,0.1756,0.1801,0.1923,0.1968,0.2085,0.2168,0.2211,0.2327,0.2386,0.2451,0.2511,0.2439,0.243,0.2392,0.2524,0.2508,0.2226,0.2218,0.2234,0.2229,0.2225,0.2221,0.2218,0,0.1496,0.1514,0.1619,0.165,0.1697,0.1782,0.183,0.1953,0.1998,0.2159,0.2175,0.2294,0.235,0.2306,0.2384,0.2383,0.2356,0.2328,0.2268,0.2222,0.2199,0.2198,0.2196,0.2211,0.221,0.2209,0.2208,0,0.1431,0.1487,0.1524,0.1589,0.1646,0.1696,0.1778,0.1801,0.1933,0.2061,0.2085,0.2115,0.2173,0.2202,0.2223,0.2219,0.2331,0.2282,0.2291,0.2234,0.2194,0.2176,0.2179,0.2193,0.2195,0.2197,0.2198,0,0.1392,0.1402,0.1462,0.1502,0.1569,0.158,0.164,0.1681,0.1742,0.191,0.1914,0.2032,0.2148,0.2117,0.2137,0.2121,0.208,0.1997,0.2019,0.2036,0.1951,0.1871,0.1756,0,0,0,0,0,0.1338,0.1332,0.1365,0.1392,0.1452,0.1491,0.1582,0.1643,0.1774,0.1738,0.1821,0.186,0.1885,0.1945,0.1888,0.2051,0.2094,0.1975,0.2011,0.211,0.2128,0.2045,0,0,0,0,0,0,0.1299,0.1329,0.1327,0.1292,0.1293,0.1339,0.1394,0.1484,0.1468,0.1612,0.1633,0.1741,0.1795,0.19,0.1852,0.187,0.1851,0.2053,0.2047,0.21,0.2116,0.213,0.2051,0,0,0,0,0]},{"header":{"parameterUnit":"m.s-1","parameterCategory":2,"la1":30.2991,"la2":30.254,"lo1":-89.0895,"lo2":-89.0444,"dy":0.0017,"dx":0.0017,"nx":28,"ny":28,"refTime":"2024-05-24T21:00:00:Z","depth":"4","parameterNumber":3,"parameterNumberName":"V-component_of_CURRENTS"},"data":[0,0,0,0,0,0,0,0,0,0,0,0,0,0,0,0,0,0,0,0,0,0,0,0,0,0,0,0,0,0,0,0,0,0,0,0,0,0,0,0,0,0,0,0,0,0,0,0,0,0,0,0,0,0,0,0,0,0,0.0099,0.0099,0,0.0079,0.0079,0.0079,0.0065,0.0065,0.0065,0.0065,0.003,0.0029,0.0028,0,0,0,0,0,0,0,0,0,0,0,0,0,0.0098,0.0098,0.0099,0.0099,0.0099,0.0079,0.0079,0.0079,0.0065,0.0065,0.0065,0.0065,0.003,0.0029,0.0028,0,0,0,0,0,0,0,0,0,0,0,0,0,0.009,0.0099,0.0099,0.009,0.0089,0.0079,0.0079,0.0079,0.0065,0.0065,0.0065,0.0065,0.0031,0.003,0.0028,0.0022,0,0,0.0024,0.0024,0,0,0,0,0,0,0,0,0.0091,0.009,0.0092,0.0091,0.009,0.0075,0.0066,0.0059,0.0065,0.0074,0.0065,0.0065,0.0044,0.0042,0.0038,0.002,0.0018,0.0024,0.0023,0.0023,0.0022,0,0,0,0,0,0,0,0.0091,0.0091,0.0091,0.0092,0.009,0.0078,0.0077,0.0064,0.0059,0.0073,0.0072,0.0071,0.0043,0.0039,0.0037,0.0018,0.0024,0.0023,0.0022,0.0022,-0.0,0.0,0,0,0,0,0,0,0.0096,0.0091,0.0092,0.009,0.0091,0.0078,0.0077,0.0079,0.0059,0.0057,0.0071,0.007,0.0041,0.0038,0.0035,0.0043,0.0023,0.0021,0.0021,-0.0,-0.0,0.0,0,0,0,0,0,0,0.0096,0.0097,0.0092,0.009,0.0089,0.0078,0.0081,0.0079,0.0079,0.0058,0.0055,0.0074,0.0041,0.0037,0.0031,0.0041,0.0021,0.002,-0.0001,-0.0,0.0,0.0048,0,0,0,0,0,0,0.0097,0.0097,0.0102,0.0091,0.0089,0.0094,0.0081,0.0079,0.0078,0.0077,0.0059,0.0056,0.0041,0.0033,0.003,0.0039,0.0019,-0.0001,-0.0,-0.0,0.0046,0.005,0.0053,0,0,0,0,0,0.0097,0.0105,0.0102,0.0102,0.0096,0.0094,0.0093,0.0084,0.0079,0.0083,0.007,0.0056,0.0033,0.0033,0.0028,0.0037,-0.0001,-0.0001,-0.0,0.0044,0.0049,0.0053,0,0,0,0,0,0,0.0106,0.0104,0.0101,0.0108,0.0105,0.0092,0.0096,0.0088,0.0081,0.0082,0.006,0.0056,0.0053,0.0038,0.0037,0.0031,0.0013,0.0013,0.0048,0.0052,0.0056,0.007,0.0018,0,0,0,0,0,0.0111,0.0119,0.0112,0.0118,0.0118,0.0108,0.0106,0.0102,0.0093,0.009,0.0076,0.0062,0.0051,0.0047,0.0033,0.0031,0.0013,0.0033,0.0037,0.004,0.0048,0.0026,0.0028,0.0002,0.0002,0.0002,0,0,0.0116,0.0117,0.012,0.0121,0.0118,0.0125,0.0107,0.011,0.0119,0.0087,0.0093,0.0073,0.0052,0.0051,0.0048,0.0041,0.0037,0.004,0.0043,0.005,0.0026,0.0029,0.0031,0.0002,0.0002,0.0002,0,0,0.0133,0.0132,0.0145,0.0145,0.0146,0.0141,0.0145,0.0137,0.0136,0.0137,0.0116,0.0104,0.0088,0.0076,0.0067,0.0081,0.0055,0.0075,0.0107,0.0085,0.0088,0.0089,0.0069,0.0068,0.0079,0.0079,0.0079,0,0.0139,0.0156,0.0147,0.016,0.0168,0.0152,0.0169,0.0165,0.0156,0.016,0.0146,0.0122,0.0101,0.0101,0.0105,0.009,0.0073,0.0094,0.0091,0.0092,0.0093,0.0071,0.007,0.0081,0.0081,0.0081,0.008,0,0.0165,0.018,0.0188,0.0202,0.0207,0.0219,0.0215,0.022,0.0215,0.0207,0.0204,0.0173,0.0161,0.0149,0.0132,0.013,0.0114,0.0097,0.0083,0.0099,0.0074,0.0072,0.0084,0.0084,0.0083,0.0082,0,0,0.0178,0.0202,0.0206,0.0226,0.0233,0.0243,0.0259,0.027,0.0286,0.0265,0.0281,0.0249,0.0229,0.0218,0.019,0.0169,0.0156,0.0141,0.0138,0.0126,0.011,0.01,0.0096,0.0138,0.0138,0.0138,0.0091,0,0.0203,0.024,0.0245,0.0285,0.0305,0.0303,0.0325,0.0331,0.0326,0.0334,0.0302,0.0302,0.0257,0.0256,0.0227,0.0176,0.0153,0.0171,0.0092,0.009,0.0084,0.0095,0.0137,0.0089,0.0088,0.0088,0.0088,0,0.0229,0.0254,0.0298,0.034,0.035,0.037,0.0404,0.0423,0.0425,0.0421,0.0406,0.0377,0.035,0.0309,0.023,0.0243,0.0184,0.0137,0.0134,0.0109,0.0077,0.0068,0.0084,0.0084,0.0084,0.0084,0.0085,0,0.025,0.0293,0.0334,0.0347,0.0387,0.0412,0.0437,0.045,0.048,0.048,0.0495,0.0444,0.0436,0.0352,0.0254,0.0244,0.0162,0.0134,0.0068,0.0066,0.0068,0.0066,0.0078,0.0078,0.0079,0.0079,0.0079,0,0.0276,0.031,0.0351,0.0373,0.0438,0.0451,0.051,0.0525,0.0553,0.0596,0.0547,0.0559,0.0447,0.0385,0.028,0.0173,0.0181,0.0079,0.0056,0.0088,0.009,0.0066,0.0065,0.0077,0.0077,0.0078,0.0078,0,0.0293,0.0317,0.0371,0.0423,0.0451,0.0498,0.0572,0.0611,0.063,0.0684,0.0693,0.0653,0.0573,0.0451,0.0318,0.0221,0.0109,0.0067,0.0119,0.0099,0.0018,0.002,-0.0011,-0.0012,-0.0012,-0.0013,-0.0013,0,0.0304,0.0333,0.041,0.0452,0.0481,0.0552,0.0608,0.0652,0.0693,0.074,0.0768,0.072,0.0671,0.0484,0.0341,0.0145,0.0109,0.0044,0.002,0.003,0.001,0.0013,0.0016,-0.0014,-0.0014,-0.0014,-0.0015,0,0.0325,0.0353,0.0399,0.0487,0.0554,0.0633,0.0707,0.0746,0.0804,0.0822,0.0833,0.0745,0.0658,0.0495,0.0348,0.0202,0.0081,0.0037,0.0037,0.0013,0.0025,0.0007,0.0011,-0.0017,-0.0016,-0.0016,-0.0016,0,0.0342,0.0377,0.044,0.052,0.0607,0.0691,0.0729,0.0784,0.0835,0.0876,0.0877,0.0786,0.0732,0.0525,0.0388,0.0247,0.0197,0.013,0.0124,0.0124,0.0168,0.0203,0.0204,0,0,0,0,0,0.0356,0.0397,0.0467,0.0557,0.0642,0.0698,0.079,0.0819,0.0873,0.0888,0.0885,0.0803,0.0618,0.054,0.0398,0.0356,0.016,0.018,0.0076,-0.0028,-0.0025,0.0001,0,0,0,0,0,0,0.0365,0.0428,0.0465,0.0575,0.0638,0.0741,0.0804,0.0841,0.0843,0.0871,0.0777,0.0745,0.0563,0.07,0.0388,0.0348,0.0255,0.0099,0.0095,-0.0029,-0.0027,-0.0025,0.0003,0,0,0,0,0]}]]